DW5247 Lemo FI current weather conditions

sailwx.info

Wind from 180 at 3 knots gusting 8

Air temperature 23.3° C
Dewpoint 14.9° C

Last reported at 2014-Jul-23 06:47 UTC.
Time now 2014-Jul-23 08:06 UTC

Location: N 62°41' E 029°49'.
View on Google Maps.

See reports from other nearby stations

  
Tides and Currents Weather Stations Pressure Air Temp Water Temp Dewpoint Dewpoint Depression Visibility Wind Speed Wind Dir Waves Ship Positions
date/time (UTC)wind fromknots sea level pressurealtimeterstation pressurevisibilityair tempwater tempwave heightnotes
2014-Jul-23 07:47 158 1 gusting 3 23.9
2014-Jul-23 07:42 248 2 gusting 3 23.9
2014-Jul-23 07:37 068 2 gusting 7 23.9
2014-Jul-23 07:32 113 2 gusting 7 23.9
2014-Jul-23 07:27 203 2 gusting 7 23.3
2014-Jul-23 07:22 180 2 gusting 6 23.9
2014-Jul-23 07:17 225 3 gusting 6 23.3
2014-Jul-23 07:12 180 4 gusting 6 23.3
2014-Jul-23 07:07 270 3 gusting 6 23.3
2014-Jul-23 07:02 158 3 gusting 6 23.3
2014-Jul-23 06:57 135 3 gusting 6 23.3
2014-Jul-23 06:52 180 3 gusting 6 23.3
2014-Jul-23 06:47 180 3 gusting 8 23.3
2014-Jul-23 06:42 225 4 gusting 8 23.3
2014-Jul-23 06:37 158 4 gusting 8 23.3
2014-Jul-23 06:32 158 4 gusting 7 23.3
2014-Jul-23 06:27 315 3 gusting 7 23.3
2014-Jul-23 06:22 180 3 gusting 7 22.8
2014-Jul-23 06:17 293 2 gusting 4 23.3
2014-Jul-23 06:12 135 2 gusting 5 23.3
2014-Jul-23 06:07 135 2 gusting 5 22.8
2014-Jul-23 06:02 203 2 gusting 5 22.8
2014-Jul-23 05:57 180 2 gusting 5 22.8
2014-Jul-23 05:52 203 3 gusting 3 22.8
2014-Jul-23 05:47 180 2 gusting 3 22.8
2014-Jul-23 05:42 180 3 gusting 3 22.8
2014-Jul-23 05:37 203 2 gusting 4 22.2
2014-Jul-23 05:32 225 2 gusting 6 22.2
2014-Jul-23 05:27 225 2 gusting 6 22.2
2014-Jul-23 05:22 158 2 gusting 6 21.7
2014-Jul-23 05:17 203 1 gusting 6 21.7
2014-Jul-23 05:12 180 1 gusting 3 21.7
2014-Jul-23 05:07 180 1 gusting 3 21.7
2014-Jul-23 05:02 270 1 gusting 3 21.7
2014-Jul-23 04:57 225 1 gusting 4 21.7
2014-Jul-23 04:52 203 2 gusting 4 21.7
2014-Jul-23 04:47 180 2 gusting 4 21.1
2014-Jul-23 04:42 225 2 gusting 4 21.1
2014-Jul-23 04:37 158 2 gusting 4 21.1
2014-Jul-23 04:32 248 2 gusting 3 21.1
2014-Jul-23 04:27 248 1 gusting 4 20.6
2014-Jul-23 04:22 180 1 gusting 4 20.6
2014-Jul-23 04:17 248 1 gusting 4 20.6
2014-Jul-23 04:12 225 1 gusting 4 20.6
2014-Jul-23 04:07 180 2 gusting 4 20.6
2014-Jul-23 04:02 225 1 gusting 3 20.6
2014-Jul-23 03:57 180 1 gusting 3 20.0
2014-Jul-23 03:52 225 1 gusting 3 20.0
2014-Jul-23 03:47 225 1 gusting 1 20.0
2014-Jul-23 03:42 180 1 gusting 3 19.4
2014-Jul-23 03:37 203 1 gusting 3 19.4
2014-Jul-23 03:32 225 1 gusting 4 19.4
2014-Jul-23 03:27 225 1 gusting 4 19.4
2014-Jul-23 03:22 225 0 gusting 4 19.4
2014-Jul-23 03:17 158 0 19.4
2014-Jul-23 03:12 180 0 gusting 1 19.4
2014-Jul-23 03:07 225 0 gusting 1 18.9
2014-Jul-23 03:02 225 0 gusting 1 18.9
2014-Jul-23 02:57 203 0 gusting 1 18.9
2014-Jul-23 02:52 225 0 gusting 1 18.9
2014-Jul-23 02:47 180 0 gusting 1 18.9
2014-Jul-23 02:42 225 0 gusting 1 18.9
2014-Jul-23 02:37 203 0 gusting 0 18.9
2014-Jul-23 02:32 180 0 gusting 1 18.9
2014-Jul-23 02:27 225 0 gusting 1 18.9
2014-Jul-23 02:22 225 0 gusting 1 18.9
2014-Jul-23 02:17 180 0 gusting 1 18.9
2014-Jul-23 02:12 180 0 gusting 2 18.9
2014-Jul-23 02:07 203 18.9
2014-Jul-23 02:02 158 0 gusting 2 18.9
2014-Jul-23 01:57 203 0 gusting 2 18.9
2014-Jul-23 01:52 225 1 gusting 3 18.9
2014-Jul-23 01:47 225 1 gusting 3 18.9
2014-Jul-23 01:42 203 1 gusting 3 18.9
2014-Jul-23 01:37 180 1 gusting 2 18.9
2014-Jul-23 01:32 203 0 gusting 2 18.9
2014-Jul-23 01:27 203 0 gusting 1 18.9
2014-Jul-23 01:22 180 1 gusting 1 18.9
2014-Jul-23 01:17 248 1 gusting 1 19.4
2014-Jul-23 01:12 180 1 gusting 3 19.4
2014-Jul-23 01:07 180 1 gusting 3 19.4
2014-Jul-23 01:02 158 1 gusting 2 19.4
2014-Jul-23 00:57 180 1 gusting 3 19.4
2014-Jul-23 00:52 180 1 gusting 3 19.4
2014-Jul-23 00:47 203 1 gusting 5 19.4
2014-Jul-23 00:42 180 1 gusting 5 19.4
2014-Jul-23 00:37 180 1 gusting 5 19.4
2014-Jul-23 00:32 248 2 gusting 3 19.4
2014-Jul-23 00:27 180 1 gusting 3 19.4
2014-Jul-23 00:22 180 1 gusting 3 19.4
2014-Jul-23 00:17 180 1 gusting 3 19.4
2014-Jul-23 00:12 180 1 gusting 2 19.4
2014-Jul-23 00:07 180 1 gusting 2 19.4
2014-Jul-23 00:02 180 1 gusting 3 19.4
2014-Jul-22 23:57 180 1 gusting 3 19.4
2014-Jul-22 23:52 180 1 gusting 4 19.4
2014-Jul-22 23:47 158 1 gusting 5 19.4
2014-Jul-22 23:42 180 1 gusting 5 19.4
2014-Jul-22 23:37 248 2 gusting 5 19.4
2014-Jul-22 23:32 225 2 gusting 4 19.4
2014-Jul-22 23:27 158 2 gusting 4 19.4
2014-Jul-22 23:22 180 1 gusting 4 19.4
2014-Jul-22 23:17 180 1 gusting 3 19.4
2014-Jul-22 23:12 203 1 gusting 3 19.4
2014-Jul-22 23:07 180 1 gusting 3 18.9
2014-Jul-22 23:02 180 1 gusting 3 18.9
2014-Jul-22 22:57 180 1 gusting 1 18.9
2014-Jul-22 22:52 180 0 gusting 2 18.9
2014-Jul-22 22:47 180 0 gusting 3 18.9
2014-Jul-22 22:42 180 1 gusting 3 18.9
2014-Jul-22 22:37 158 1 gusting 3 18.9
2014-Jul-22 22:32 180 1 gusting 3 18.9
2014-Jul-22 22:27 180 0 gusting 1 18.9
2014-Jul-22 22:22 180 0 gusting 1 18.9
2014-Jul-22 22:17 203 0 gusting 1 18.9
2014-Jul-22 22:12 203 0 gusting 1 18.9
2014-Jul-22 22:07 203 0 gusting 1 19.4
2014-Jul-22 22:02 225 0 gusting 1 19.4
2014-Jul-22 21:57 225 0 gusting 1 19.4
2014-Jul-22 21:52 225 0 gusting 2 19.4
2014-Jul-22 21:47 225 0 gusting 2 19.4
2014-Jul-22 21:42 225 1 gusting 2 19.4
2014-Jul-22 21:37 225 1 gusting 2 19.4
2014-Jul-22 21:32 225 0 gusting 1 19.4
2014-Jul-22 21:27 225 0 gusting 1 19.4
2014-Jul-22 21:22 225 0 gusting 1 19.4
2014-Jul-22 21:17 225 1 gusting 1 19.4
2014-Jul-22 21:12 225 1 gusting 1 19.4
2014-Jul-22 21:07 225 0 gusting 1 19.4
2014-Jul-22 20:57 225 0 gusting 1 20.0
2014-Jul-22 20:52 225 0 gusting 2 20.0
2014-Jul-22 20:47 225 1 gusting 2 20.0
2014-Jul-22 20:42 225 1 gusting 2 20.0
2014-Jul-22 20:37 225 1 gusting 2 20.6
2014-Jul-22 20:32 225 1 gusting 1 20.6
2014-Jul-22 20:27 225 1 gusting 1 20.6
2014-Jul-22 20:22 225 0 gusting 1 20.6
2014-Jul-22 20:17 225 0 gusting 1 20.6
2014-Jul-22 20:12 225 0 gusting 1 20.6
2014-Jul-22 20:07 180 0 gusting 1 21.1
2014-Jul-22 20:02 180 0 gusting 1 21.1
2014-Jul-22 19:57 180 0 gusting 1 21.1
2014-Jul-22 19:52 180 0 gusting 1 21.7
2014-Jul-22 19:47 180 0 gusting 1 21.7
2014-Jul-22 19:42 180 0 gusting 1 21.7
2014-Jul-22 19:37 180 0 gusting 1 22.2
2014-Jul-22 19:32 180 22.2
2014-Jul-22 19:27 180 22.2
2014-Jul-22 19:22 180 22.8
2014-Jul-22 19:17 180 22.8
2014-Jul-22 19:12 180 22.8
2014-Jul-22 19:02 180 23.3
2014-Jul-22 18:57 180 23.3
2014-Jul-22 18:52 180 23.3
2014-Jul-22 18:47 180 23.9
2014-Jul-22 18:42 180 23.9
2014-Jul-22 18:37 180 23.9
2014-Jul-22 18:32 180 24.4
2014-Jul-22 18:27 180 24.4
2014-Jul-22 18:22 180 24.4
2014-Jul-22 18:17 180 24.4
2014-Jul-22 18:12 180 24.4
2014-Jul-22 18:07 180 24.4
2014-Jul-22 18:02 180 25.0
2014-Jul-22 17:57 180 25.0
2014-Jul-22 17:52 180 25.0
2014-Jul-22 17:47 158 0 gusting 2 25.0
2014-Jul-22 17:42 158 0 gusting 1 25.0
2014-Jul-22 17:37 158 0 gusting 1 25.0
2014-Jul-22 17:32 135 25.0
2014-Jul-22 17:27 135 25.6
2014-Jul-22 17:22 225 25.0
2014-Jul-22 17:17 225 25.6
2014-Jul-22 17:12 225 0 gusting 1 25.6
2014-Jul-22 17:07 158 0 gusting 2 25.6
2014-Jul-22 17:02 135 0 gusting 2 25.0
2014-Jul-22 16:57 248 0 gusting 1 25.6
2014-Jul-22 16:52 158 0 25.6
2014-Jul-22 16:47 248 25.6
2014-Jul-22 16:42 158 25.0
2014-Jul-22 16:37 248 25.0
2014-Jul-22 16:32 315 25.0
2014-Jul-22 16:27 315 25.0
2014-Jul-22 16:22 315 25.0
2014-Jul-22 16:17 315 25.0
2014-Jul-22 16:12 135 25.0
2014-Jul-22 16:07 225 25.0
2014-Jul-22 16:02 248 25.0
2014-Jul-22 15:57 270 25.0
2014-Jul-22 15:52 315 25.0
2014-Jul-22 15:47 315 25.0
2014-Jul-22 15:42 315 25.0
2014-Jul-22 15:37 158 25.0
2014-Jul-22 15:32 180 25.0
2014-Jul-22 15:27 180 0 gusting 1 25.0
2014-Jul-22 15:22 248 0 gusting 3 25.0
2014-Jul-22 15:17 203 0 gusting 3 25.0
2014-Jul-22 15:12 180 0 gusting 3 25.0
2014-Jul-22 15:07 270 0 gusting 1 25.0
2014-Jul-22 15:02 135 0 gusting 3 25.0
2014-Jul-22 14:57 180 1 gusting 3 25.0
2014-Jul-22 14:52 158 1 gusting 3 25.0
2014-Jul-22 14:47 270 1 gusting 5 25.0
2014-Jul-22 14:42 248 2 gusting 5 25.0
2014-Jul-22 14:37 225 2 gusting 5 25.6
2014-Jul-22 14:32 248 1 gusting 3 25.6
2014-Jul-22 14:27 293 0 gusting 2 25.0
2014-Jul-22 14:22 315 0 gusting 2 25.0
2014-Jul-22 14:17 293 25.6
2014-Jul-22 14:12 293 25.6
2014-Jul-22 14:07 270 25.6
2014-Jul-22 14:02 248 25.6
2014-Jul-22 13:57 203 0 gusting 4 25.6
2014-Jul-22 13:52 270 2 gusting 6 25.6
2014-Jul-22 13:47 270 2 gusting 6 25.6
2014-Jul-22 13:42 203 2 gusting 3 25.6
2014-Jul-22 13:37 293 2 gusting 5 26.1
2014-Jul-22 13:32 338 1 gusting 5 26.1
2014-Jul-22 13:27 338 1 gusting 5 26.1
2014-Jul-22 13:22 315 2 gusting 5 26.1
2014-Jul-22 13:17 315 3 gusting 5 26.1
2014-Jul-22 13:12 293 3 gusting 6 26.7
2014-Jul-22 13:07 270 3 gusting 6 26.7
2014-Jul-22 13:02 293 4 gusting 7 27.2
2014-Jul-22 12:57 270 4 gusting 7 27.2
2014-Jul-22 12:52 270 3 gusting 7 27.2
2014-Jul-22 12:47 045 3 gusting 9 27.2
2014-Jul-22 12:42 113 4 gusting 10 27.2
2014-Jul-22 12:37 180 4 gusting 10 27.2
2014-Jul-22 12:32 203 4 gusting 10 27.2
2014-Jul-22 12:27 225 4 gusting 7 27.2
2014-Jul-22 12:22 270 2 gusting 7 27.2
2014-Jul-22 12:17 270 2 gusting 4 27.2
2014-Jul-22 12:12 315 2 gusting 4 27.2
2014-Jul-22 12:07 248 2 gusting 4 27.2
2014-Jul-22 12:02 270 2 gusting 4 27.2
2014-Jul-22 11:57 315 2 gusting 4 27.2
2014-Jul-22 11:52 248 2 gusting 5 27.2
2014-Jul-22 11:47 248 1 gusting 5 27.2
2014-Jul-22 11:42 248 3 gusting 5 27.2
2014-Jul-22 11:37 315 3 gusting 5 27.2
2014-Jul-22 11:32 293 3 gusting 8 27.2
2014-Jul-22 11:27 270 3 gusting 8 27.2
2014-Jul-22 11:22 270 4 gusting 8 27.2
2014-Jul-22 11:17 248 3 gusting 5 27.2
2014-Jul-22 11:12 225 3 gusting 5 27.2
2014-Jul-22 11:07 270 3 gusting 6 27.2
2014-Jul-22 11:02 338 3 gusting 6 27.2
2014-Jul-22 10:57 270 2 gusting 6 27.2
2014-Jul-22 10:52 270 2 gusting 7 27.2
2014-Jul-22 10:47 158 4 gusting 7 27.2
2014-Jul-22 10:42 293 5 gusting 7 27.2
2014-Jul-22 10:37 338 3 gusting 6 27.2
2014-Jul-22 10:32 293 4 gusting 6 27.2
2014-Jul-22 10:27 315 4 gusting 10 27.2
2014-Jul-22 10:22 338 4 gusting 10 27.2
2014-Jul-22 10:17 315 5 gusting 10 27.2
2014-Jul-22 10:12 315 5 gusting 10 27.2
2014-Jul-22 10:07 315 5 gusting 7 27.2
2014-Jul-22 10:02 26.7
2014-Jul-22 09:57 270 5 gusting 8 26.7
2014-Jul-22 09:52 135 5 gusting 8 26.7
2014-Jul-22 09:47 270 5 gusting 6 26.7
2014-Jul-22 09:42 315 4 gusting 6 26.7
2014-Jul-22 09:37 315 5 gusting 6 26.7
2014-Jul-22 09:32 248 5 gusting 8 26.7
2014-Jul-22 09:27 315 4 gusting 8 26.1
2014-Jul-22 09:22 315 5 gusting 8 26.1
2014-Jul-22 09:17 338 6 gusting 6 26.1
2014-Jul-22 09:12 315 6 gusting 5 26.1
2014-Jul-22 09:07 293 3 gusting 6 26.1
2014-Jul-22 09:02 293 3 gusting 6 26.1
2014-Jul-22 08:57 315 3 gusting 6 25.6
2014-Jul-22 08:52 315 3 gusting 5 25.6
2014-Jul-22 08:47 158 2 gusting 6 25.6
2014-Jul-22 08:42 315 3 gusting 6 25.6
2014-Jul-22 08:37 180 2 gusting 3 25.6
2014-Jul-22 08:32 270 1 gusting 6 25.0
2014-Jul-22 08:27 338 2 gusting 6 25.6
2014-Jul-22 08:22 270 2 gusting 6 25.0
2014-Jul-22 08:17 203 2 gusting 6 25.0
2014-Jul-22 08:12 293 2 gusting 6 25.0
2014-Jul-22 08:07 293 2 gusting 5 24.4
2014-Jul-22 08:02 248 1 gusting 3 24.4
2014-Jul-22 07:57 315 2 gusting 4 24.4
2014-Jul-22 07:52 158 3 gusting 8 24.4
2014-Jul-22 07:47 203 3 gusting 8 24.4
2014-Jul-22 07:42 180 2 gusting 8 24.4
2014-Jul-22 07:37 158 2 gusting 6 23.9
2014-Jul-22 07:32 248 2 gusting 6 23.9
2014-Jul-22 07:27 203 3 gusting 6 23.9
2014-Jul-22 07:22 203 2 gusting 6 23.9
2014-Jul-22 07:17 225 2 gusting 4 23.9
2014-Jul-22 07:12 135 2 gusting 4 23.3
2014-Jul-22 07:07 225 2 gusting 3 23.3
2014-Jul-22 07:02 270 2 gusting 6 23.3
2014-Jul-22 06:57 180 1 gusting 6 23.3
2014-Jul-22 06:52 248 2 gusting 6 23.3
2014-Jul-22 06:47 180 2 gusting 3 23.3
2014-Jul-22 06:42 203 2 gusting 6 22.8
2014-Jul-22 06:37 135 2 gusting 6 22.8
2014-Jul-22 06:32 315 2 gusting 6 22.8
2014-Jul-22 06:27 270 2 gusting 4 22.8
2014-Jul-22 06:22 180 1 gusting 3 22.8
2014-Jul-22 06:17 225 1 gusting 4 22.8
2014-Jul-22 06:12 225 2 gusting 5 22.2
2014-Jul-22 06:07 293 3 gusting 5 22.2
2014-Jul-22 06:02 180 3 gusting 8 22.2
2014-Jul-22 05:57 248 3 gusting 8 22.2
2014-Jul-22 05:52 135 3 gusting 6 22.2
2014-Jul-22 05:47 225 2 gusting 6 21.7
2014-Jul-22 05:42 248 2 gusting 4 21.7
2014-Jul-22 05:37 248 3 gusting 4 21.7
2014-Jul-22 05:32 225 3 gusting 6 21.7
2014-Jul-22 05:27 225 2 gusting 6 21.7
2014-Jul-22 05:22 180 2 gusting 6 21.1
2014-Jul-22 05:17 270 2 gusting 6 21.1
2014-Jul-22 05:12 248 3 gusting 6 21.1
2014-Jul-22 05:07 180 4 gusting 7 21.1
2014-Jul-22 05:02 180 3 gusting 7 20.6
2014-Jul-22 04:57 158 3 gusting 7 20.6
2014-Jul-22 04:52 203 3 gusting 7 20.6
2014-Jul-22 04:47 225 3 gusting 7 20.6
2014-Jul-22 04:42 203 3 gusting 6 20.6
2014-Jul-22 04:37 158 2 gusting 6 20.0
2014-Jul-22 04:32 158 2 gusting 6 20.0
2014-Jul-22 04:27 180 3 gusting 6 20.0
2014-Jul-22 04:22 203 3 gusting 6 20.0
2014-Jul-22 04:17 158 2 gusting 4 19.4
2014-Jul-22 04:12 248 2 gusting 4 19.4
2014-Jul-22 04:07 158 1 gusting 2 19.4
2014-Jul-22 04:02 158 1 gusting 5 19.4
2014-Jul-22 03:57 203 1 gusting 5 18.9
2014-Jul-22 03:52 180 2 gusting 3 18.9
2014-Jul-22 03:47 180 2 gusting 3 18.3
2014-Jul-22 03:42 180 2 gusting 4 18.3
2014-Jul-22 03:37 180 3 gusting 5 18.3
2014-Jul-22 03:32 180 3 gusting 5 17.8
2014-Jul-22 03:27 180 2 gusting 5 17.8
2014-Jul-22 03:22 180 1 gusting 3 17.8
2014-Jul-22 03:17 158 1 gusting 2 17.8
2014-Jul-22 03:12 225 0 gusting 3 17.2
2014-Jul-22 03:07 158 1 gusting 3 17.2
2014-Jul-22 03:02 158 1 gusting 4 17.2
2014-Jul-22 02:57 158 1 gusting 4 16.7
2014-Jul-22 02:52 225 1 gusting 4 16.7
2014-Jul-22 02:47 293 1 gusting 3 16.7
2014-Jul-22 02:42 225 1 gusting 2 16.7
2014-Jul-22 02:37 180 0 gusting 1 16.1
2014-Jul-22 02:32 068 0 gusting 1 16.1
2014-Jul-22 02:27 203 0 gusting 1 16.1
2014-Jul-22 02:22 248 0 gusting 1 16.1
2014-Jul-22 02:17 248 0 gusting 3 16.1
2014-Jul-22 02:12 203 0 gusting 3 15.6
2014-Jul-22 02:07 225 0 gusting 3 15.6
2014-Jul-22 02:02 203 0 gusting 1 15.6
2014-Jul-22 01:57 248 15.6
2014-Jul-22 01:52 203 0 gusting 1 15.6
2014-Jul-22 01:47 203 0 gusting 1 15.0
2014-Jul-22 01:42 180 15.0
2014-Jul-22 01:37 203 15.0
2014-Jul-22 01:32 225 15.0
2014-Jul-22 01:27 248 15.0
2014-Jul-22 01:22 203 14.4
2014-Jul-22 01:17 248 14.4
2014-Jul-22 01:12 225 14.4
2014-Jul-22 01:07 225 14.4
2014-Jul-22 01:02 225 0 gusting 1 14.4
2014-Jul-22 00:57 180 0 gusting 1 13.9
2014-Jul-22 00:52 180 13.9
2014-Jul-22 00:47 203 13.9
2014-Jul-22 00:42 203 0 gusting 2 13.9
2014-Jul-22 00:37 180 0 gusting 2 13.9
2014-Jul-22 00:32 180 13.9
2014-Jul-22 00:27 180 13.9
2014-Jul-22 00:22 180 13.9
2014-Jul-22 00:17 180 13.9
2014-Jul-22 00:12 180 13.9
2014-Jul-22 00:07 203 13.9
2014-Jul-22 00:02 203 13.9
2014-Jul-21 23:57 180 13.9
2014-Jul-21 23:52 180 13.9
2014-Jul-21 23:47 180 13.9
2014-Jul-21 23:42 180 13.9
2014-Jul-21 23:37 270 13.9
2014-Jul-21 23:32 270 13.9
2014-Jul-21 23:27 270 13.9
2014-Jul-21 23:22 270 13.9
2014-Jul-21 23:17 270 13.9
2014-Jul-21 23:12 270 14.4
2014-Jul-21 23:07 270 14.4
2014-Jul-21 23:02 270 14.4
2014-Jul-21 22:57 270 14.4
2014-Jul-21 22:52 270 14.4
2014-Jul-21 22:47 270 14.4
2014-Jul-21 22:42 270 15.0
2014-Jul-21 22:37 270 15.0
2014-Jul-21 22:32 270 15.0
2014-Jul-21 22:27 270 15.0
2014-Jul-21 22:22 270 15.6
2014-Jul-21 22:17 270 15.6
2014-Jul-21 22:12 270 15.6
2014-Jul-21 22:07 270 15.6
2014-Jul-21 22:02 270 15.6
2014-Jul-21 21:57 270 16.1
2014-Jul-21 21:52 270 16.1
2014-Jul-21 21:47 270 16.1
2014-Jul-21 21:42 270 16.1
2014-Jul-21 21:37 270 16.1
2014-Jul-21 21:32 270 16.7
2014-Jul-21 21:27 270 16.7
2014-Jul-21 21:22 270 16.7
2014-Jul-21 21:17 270 17.2
2014-Jul-21 21:12 270 17.2
2014-Jul-21 21:07 270 17.8
2014-Jul-21 20:57 270 17.8
2014-Jul-21 20:52 270 17.8
2014-Jul-21 20:47 270 17.8
2014-Jul-21 20:42 270 18.3
2014-Jul-21 20:37 293 18.3
2014-Jul-21 20:32 293 18.3
2014-Jul-21 20:27 293 18.3
2014-Jul-21 20:22 293 18.9
2014-Jul-21 20:17 293 18.9
2014-Jul-21 20:12 293 18.9
2014-Jul-21 20:07 293 19.4
2014-Jul-21 20:02 293 19.4
2014-Jul-21 19:57 293 19.4
2014-Jul-21 19:52 293 19.4
2014-Jul-21 19:47 293 20.0
2014-Jul-21 19:42 293 20.0
2014-Jul-21 19:37 293 20.6
2014-Jul-21 19:32 293 20.6
2014-Jul-21 19:27 293 20.6
2014-Jul-21 19:22 293 20.6
2014-Jul-21 19:17 293 21.1
2014-Jul-21 19:12 293 21.1
2014-Jul-21 19:07 293 21.1
2014-Jul-21 19:02 293 21.1
2014-Jul-21 18:57 293 21.7
2014-Jul-21 18:52 293 21.7
2014-Jul-21 18:47 293 21.7
2014-Jul-21 18:42 293 22.2
2014-Jul-21 18:37 293 22.2
2014-Jul-21 18:32 293 22.2
2014-Jul-21 18:27 293 22.2
2014-Jul-21 18:22 293 22.2
2014-Jul-21 18:17 293 22.8
2014-Jul-21 18:12 293 22.8
2014-Jul-21 18:07 293 22.8
2014-Jul-21 18:02 293 22.8
2014-Jul-21 17:57 293 22.8
2014-Jul-21 17:52 293 22.8
2014-Jul-21 17:47 293 23.3
2014-Jul-21 17:42 248 23.3
2014-Jul-21 17:37 248 23.3
2014-Jul-21 17:32 248 23.3
2014-Jul-21 17:27 315 23.3
2014-Jul-21 17:22 315 23.3
2014-Jul-21 17:17 315 0 gusting 3 23.3
2014-Jul-21 17:12 270 1 gusting 3 23.9
2014-Jul-21 17:07 315 1 gusting 2 23.9
2014-Jul-21 17:02 315 0 gusting 2 23.9
2014-Jul-21 16:57 315 0 gusting 3 23.9
2014-Jul-21 16:52 270 0 gusting 3 23.9
2014-Jul-21 16:47 315 1 gusting 5 23.9
2014-Jul-21 16:37 315 2 gusting 6 23.9
2014-Jul-21 16:32 315 2 gusting 5 23.9
2014-Jul-21 16:27 315 2 gusting 5 23.9
2014-Jul-21 16:22 315 2 gusting 5 23.9
2014-Jul-21 16:17 315 3 gusting 5 23.9
2014-Jul-21 16:12 315 2 gusting 3 23.9
2014-Jul-21 16:07 293 1 gusting 3 23.9
2014-Jul-21 16:02 315 1 gusting 3 23.9
2014-Jul-21 15:57 315 1 gusting 3 23.9
2014-Jul-21 15:52 293 2 gusting 5 23.9
2014-Jul-21 15:47 315 2 gusting 5 23.9
2014-Jul-21 15:42 293 2 gusting 5 23.9
2014-Jul-21 15:37 23.9
2014-Jul-21 15:32 270 3 gusting 6 23.9
2014-Jul-21 15:27 315 3 gusting 6 23.9
2014-Jul-21 15:22 315 3 gusting 6 24.4
2014-Jul-21 15:17 315 3 gusting 6 23.9
2014-Jul-21 15:12 293 3 gusting 6 23.9
2014-Jul-21 15:07 315 3 gusting 6 23.9
2014-Jul-21 15:02 315 3 gusting 6 23.9
2014-Jul-21 14:57 315 3 gusting 5 23.9
2014-Jul-21 14:52 315 3 gusting 6 23.9
2014-Jul-21 14:47 315 3 gusting 8 23.9
2014-Jul-21 14:42 315 5 gusting 8 23.9
2014-Jul-21 14:37 315 5 gusting 8 23.9
2014-Jul-21 14:32 338 3 gusting 8 23.9
2014-Jul-21 14:27 338 4 gusting 7 23.9
2014-Jul-21 14:22 270 4 gusting 6 23.9
2014-Jul-21 14:17 315 3 gusting 6 23.9
2014-Jul-21 14:12 315 3 gusting 6 23.9
2014-Jul-21 14:07 315 3 gusting 9 23.9
2014-Jul-21 14:02 315 4 gusting 11 23.3
2014-Jul-21 13:57 315 5 gusting 11 23.9
2014-Jul-21 13:52 315 5 gusting 11 23.9
2014-Jul-21 13:47 270 2 gusting 3 23.9
2014-Jul-21 13:42 225 1 gusting 10 23.9
2014-Jul-21 13:37 045 2 gusting 10 23.9
2014-Jul-21 13:32 023 4 gusting 10 23.9
2014-Jul-21 13:27 315 4 gusting 5 23.3
2014-Jul-21 13:22 338 4 gusting 6 23.3
2014-Jul-21 13:17 338 4 gusting 6 23.3
2014-Jul-21 13:12 293 3 gusting 6 23.9
2014-Jul-21 13:07 315 2 gusting 6 23.3
2014-Jul-21 13:02 315 3 gusting 6 23.3
2014-Jul-21 12:57 023 3 gusting 8 23.3
2014-Jul-21 12:52 315 4 gusting 8 23.3
2014-Jul-21 12:47 315 4 gusting 8 23.3
2014-Jul-21 12:42 270 4 gusting 6 23.3
2014-Jul-21 12:37 293 3 gusting 5 23.3
2014-Jul-21 12:32 315 2 gusting 7 23.3
2014-Jul-21 12:27 338 1 gusting 7 22.8
2014-Jul-21 12:22 023 3 gusting 7 22.8
2014-Jul-21 12:17 248 4 gusting 6 22.8
2014-Jul-21 12:12 315 4 gusting 5 23.3
2014-Jul-21 12:07 023 3 gusting 6 23.3
2014-Jul-21 12:02 315 3 gusting 7 22.8
2014-Jul-21 11:57 045 3 gusting 7 22.8
2014-Jul-21 11:52 338 4 gusting 7 22.8
2014-Jul-21 11:47 293 5 gusting 7 22.8
2014-Jul-21 11:42 045 3 gusting 9 22.8
2014-Jul-21 11:37 315 3 gusting 9 22.2
2014-Jul-21 11:32 315 4 gusting 9 22.2
2014-Jul-21 11:27 315 5 gusting 8 22.2
2014-Jul-21 11:22 023 4 gusting 6 22.2
2014-Jul-21 11:17 225 4 gusting 6 22.2
2014-Jul-21 11:12 315 4 gusting 6 22.2
2014-Jul-21 11:07 068 4 gusting 9 22.2
2014-Jul-21 11:02 338 3 gusting 9 22.2
2014-Jul-21 10:57 293 4 gusting 9 22.2
2014-Jul-21 10:52 338 5 gusting 7 22.2
2014-Jul-21 10:47 315 5 gusting 7 22.2
2014-Jul-21 10:42 023 5 gusting 7 22.2
2014-Jul-21 10:37 315 5 gusting 8 22.2
2014-Jul-21 10:32 315 4 gusting 8 22.2
2014-Jul-21 10:27 315 5 gusting 8 21.7
2014-Jul-21 10:22 338 6 gusting 8 21.7
2014-Jul-21 10:17 023 5 gusting 7 21.7
2014-Jul-21 10:12 315 6 gusting 11 21.7
2014-Jul-21 10:07 315 5 gusting 11 21.7
2014-Jul-21 10:02 315 5 gusting 11 21.7
2014-Jul-21 09:57 315 5 gusting 11 21.7
2014-Jul-21 09:52 338 6 gusting 11 21.7
2014-Jul-21 09:47 023 5 gusting 11 21.7
2014-Jul-21 09:42 315 3 gusting 7 21.7
2014-Jul-21 09:37 315 4 gusting 7 21.7
2014-Jul-21 09:32 023 5 gusting 7 21.1
2014-Jul-21 09:27 315 5 gusting 11 21.1
2014-Jul-21 09:22 045 5 gusting 11 21.1
2014-Jul-21 09:17 315 5 gusting 11 21.1
2014-Jul-21 09:12 293 4 gusting 11 20.6
2014-Jul-21 09:07 270 4 gusting 11 20.6
2014-Jul-21 09:02 270 4 gusting 11 20.6
2014-Jul-21 08:57 315 4 gusting 11 20.6
2014-Jul-21 08:52 315 4 gusting 11 20.0
2014-Jul-21 08:47 315 5 gusting 6 20.6
2014-Jul-21 08:42 338 3 gusting 8 20.6
2014-Jul-21 08:37 315 4 gusting 11 20.0
2014-Jul-21 08:32 315 6 gusting 11 20.0
2014-Jul-21 08:27 338 6 gusting 11 20.0
2014-Jul-21 08:22 338 6 gusting 9 20.0
2014-Jul-21 08:17 315 6 gusting 10 20.0
2014-Jul-21 08:12 293 5 gusting 11 20.0
2014-Jul-21 08:07 315 5 gusting 11 20.0
2014-Jul-21 08:02 315 6 gusting 11 20.6